START_TIME,STEP,MOV.,H8,t_acc.,H43,t_acc.,M25,t_acc.,H9,t_acc.
1979-07-17 15:00:29.490 ,1,0,0.,12.0,0.,12.0,0.,12.0,0.,12.0
1979-07-17 15:00:41.490 ,1,0,0.,12.0,0.,12.0,0.,12.0,0.,12.0
1979-07-17 15:00:53.490 ,2,0,0.,12.0,0.,12.0,0.,12.0,0.,12.0
1979-07-17 15:01:05.490 ,2,0,1.,12.0,0.,12.0,0.,12.0,0.,12.0
1979-07-17 15:01:17.490 ,2,0,0.,12.0,0.,12.0,0.,12.0,0.,12.0
1979-07-17 15:01:29.490 ,2,0,0.,12.0,0.,12.0,0.,12.0,0.,12.0
1979-07-17 15:01:41.490 ,3,0,0.,12.0,0.,12.0,0.,12.0,0.,12.0
1979-07-17 15:01:53.490 ,3,0,0.,12.0,0.,12.0,0.,12.0,0.,12.0
1979-07-17 15:02:05.490 ,3,0,0.,12.0,0.,12.0,0.,12.0,0.,12.0
1979-07-17 15:02:17.490 ,3,0,0.,12.0,0.,12.0,0.,12.0,0.,12.0
1979-07-17 15:02:29.490 ,4,0,0.,12.0,0.,12.0,0.,12.0,0.,12.0
1979-07-17 15:02:41.490 ,4,0,0.,12.0,0.,12.0,0.,12.0,0.,12.0
1979-07-17 15:02:53.490 ,4,0,0.,12.0,0.,12.0,0.,12.0,0.,12.0
1979-07-17 15:03:05.490 ,4,0,0.,12.0,0.,12.0,0.,12.0,0.,12.0
1979-07-17 15:03:17.490 ,5,0,0.,12.0,0.,12.0,0.,12.0,0.,12.0
1979-07-17 15:03:29.490 ,5,0,0.,12.0,0.,12.0,0.,12.0,0.,12.0
1979-07-17 15:03:41.490 ,5,0,0.,12.0,0.,12.0,0.,12.0,0.,12.0
1979-07-17 15:03:53.490 ,5,0,0.,12.0,0.,12.0,0.,12.0,0.,12.0
1979-07-17 15:04:05.490 ,6,0,0.,12.0,0.,12.0,0.,12.0,0.,12.0
1979-07-17 15:04:17.490 ,6,0,0.,12.0,0.,12.0,0.,12.0,0.,12.0
1979-07-17 15:04:29.490 ,6,0,0.,12.0,0.,12.0,0.,12.0,0.,12.0
1979-07-17 15:04:41.490 ,6,0,0.,12.0,0.,12.0,0.,12.0,0.,12.0
1979-07-17 15:04:53.490 ,7,0,0.,12.0,0.,12.0,0.,12.0,0.,12.0
1979-07-17 15:05:05.490 ,7,0,0.,12.0,0.,12.0,0.,12.0,0.,12.0
1979-07-17 15:05:17.490 ,7,0,0.,12.0,0.,12.0,0.,12.0,0.,12.0
1979-07-17 15:05:29.490 ,7,0,0.,12.0,0.,12.0,0.,12.0,0.,12.0
1979-07-17 15:05:41.490 ,7,0,0.,12.0,0.,12.0,0.,12.0,0.,12.0
1979-07-17 15:05:53.490 ,7,0,0.,12.0,0.,12.0,0.,12.0,0.,12.0
1979-07-17 15:06:05.490 ,7,0,0.,12.0,0.,12.0,0.,12.0,0.,12.0
1979-07-17 15:06:17.490 ,7,0,0.,12.0,0.,12.0,0.,12.0,0.,12.0
1979-07-17 15:06:29.490 ,6,0,0.,12.0,0.,12.0,0.,12.0,0.,12.0
1979-07-17 15:06:41.490 ,6,0,0.,12.0,0.,12.0,0.,12.0,0.,12.0
1979-07-17 15:06:53.490 ,6,0,0.,12.0,0.,12.0,0.,12.0,0.,12.0
1979-07-17 15:07:05.490 ,6,0,0.,12.0,0.,12.0,0.,12.0,0.,12.0
1979-07-17 15:07:17.490 ,5,0,0.,12.0,0.,12.0,0.,12.0,0.,12.0
1979-07-17 15:07:29.490 ,5,0,1.,12.0,0.,12.0,0.,12.0,0.,12.0
1979-07-17 15:07:41.490 ,5,0,0.,12.0,0.,12.0,0.,12.0,0.,12.0
1979-07-17 15:07:53.490 ,5,0,0.,12.0,0.,12.0,0.,12.0,0.,12.0
1979-07-17 15:08:05.490 ,4,0,0.,12.0,0.,12.0,0.,12.0,0.,12.0
1979-07-17 15:08:17.490 ,4,0,0.,12.0,0.,12.0,0.,12.0,0.,12.0
1979-07-17 15:08:29.490 ,4,0,0.,12.0,0.,12.0,0.,12.0,0.,12.0
1979-07-17 15:08:41.490 ,4,0,0.,12.0,0.,12.0,0.,12.0,0.,12.0
1979-07-17 15:08:53.490 ,3,0,0.,12.0,0.,12.0,0.,12.0,0.,12.0
1979-07-17 15:09:05.490 ,3,0,0.,12.0,0.,12.0,0.,12.0,0.,12.0
1979-07-17 15:09:17.490 ,3,0,0.,12.0,0.,12.0,0.,12.0,0.,12.0
1979-07-17 15:09:29.490 ,3,0,0.,12.0,0.,12.0,0.,12.0,0.,12.0
1979-07-17 15:09:41.490 ,2,0,0.,12.0,0.,12.0,0.,12.0,0.,12.0
1979-07-17 15:09:53.490 ,2,0,0.,12.0,0.,12.0,0.,12.0,0.,12.0
1979-07-17 15:10:05.490 ,2,0,0.,12.0,0.,12.0,0.,12.0,0.,12.0
1979-07-17 15:10:17.490 ,2,0,0.,12.0,0.,12.0,0.,12.0,0.,12.0
1979-07-17 15:10:29.490 ,1,0,0.,12.0,0.,12.0,0.,12.0,0.,12.0
1979-07-17 15:10:41.490 ,1,0,0.,12.0,0.,12.0,0.,12.0,0.,12.0
1979-07-17 15:10:53.490 ,1,0,0.,12.0,0.,12.0,0.,12.0,0.,12.0
1979-07-17 15:11:05.490 ,1,0,0.,12.0,0.,12.0,0.,12.0,0.,12.0
1979-07-17 15:11:17.490 ,0,0,0.,12.0,0.,12.0,0.,12.0,0.,12.0
1979-07-17 15:11:29.490 ,0,0,0.,12.0,0.,12.0,0.,12.0,0.,12.0
1979-07-17 15:11:41.490 ,0,0,0.,12.0,0.,12.0,0.,12.0,0.,12.0
1979-07-17 15:11:53.490 ,0,0,0.,12.0,0.,12.0,0.,12.0,0.,12.0
1979-07-17 15:12:05.490 ,0,0,0.,12.0,0.,12.0,0.,12.0,0.,12.0
1979-07-17 15:12:17.490 ,0,0,0.,12.0,0.,12.0,0.,12.0,0.,12.0
1979-07-17 15:12:29.490 ,0,0,0.,12.0,0.,12.0,0.,12.0,0.,12.0
1979-07-17 15:12:41.490 ,0,0,0.,12.0,0.,12.0,0.,12.0,0.,12.0
1979-07-17 15:12:53.490 ,1,0,0.,12.0,0.,12.0,0.,12.0,0.,12.0
1979-07-17 15:13:05.490 ,1,0,0.,12.0,0.,12.0,0.,12.0,0.,12.0
1979-07-17 15:13:17.490 ,1,0,0.,12.0,0.,12.0,0.,12.0,0.,12.0
1979-07-17 15:13:29.490 ,1,0,0.,12.0,0.,12.0,0.,12.0,0.,12.0
1979-07-17 15:13:41.490 ,2,0,0.,12.0,0.,12.0,0.,12.0,0.,12.0
1979-07-17 15:13:53.490 ,2,0,1.,12.0,0.,12.0,0.,12.0,0.,12.0
1979-07-17 15:14:05.490 ,2,0,0.,12.0,0.,12.0,0.,12.0,0.,12.0
1979-07-17 15:14:17.490 ,2,0,0.,12.0,0.,12.0,0.,12.0,0.,12.0
1979-07-17 15:14:29.490 ,3,0,0.,12.0,0.,12.0,0.,12.0,0.,12.0
1979-07-17 15:14:41.490 ,3,0,0.,12.0,0.,12.0,0.,12.0,0.,12.0
1979-07-17 15:14:53.490 ,3,0,1.,12.0,0.,12.0,0.,12.0,0.,12.0
1979-07-17 15:15:05.490 ,3,0,0.,12.0,0.,12.0,0.,12.0,0.,12.0
1979-07-17 15:15:17.490 ,4,0,0.,12.0,0.,12.0,0.,12.0,0.,12.0
1979-07-17 15:15:29.490 ,4,0,0.,12.0,0.,12.0,0.,12.0,0.,12.0
1979-07-17 15:15:41.490 ,4,0,0.,12.0,0.,12.0,0.,12.0,0.,12.0
1979-07-17 15:15:53.490 ,4,0,0.,12.0,0.,12.0,0.,12.0,0.,12.0
1979-07-17 15:16:05.490 ,5,0,0.,12.0,0.,12.0,0.,12.0,0.,12.0
1979-07-17 15:16:17.490 ,5,0,0.,12.0,0.,12.0,0.,12.0,0.,12.0
1979-07-17 15:16:29.490 ,0,0,0.,12.0,0.,12.0,0.,12.0,0.,12.0
1979-07-17 15:16:41.490 ,0,0,0.,12.0,0.,12.0,0.,12.0,0.,12.0
1979-07-17 15:17:01.890 ,0,0,,0,,0,,0,,0
1979-07-17 15:17:13.890 ,0,0,0.,12.0,0.,12.0,0.,12.0,0.,12.0
1979-07-17 15:17:17.490 ,0,0,0.,12.0,0.,12.0,0.,12.0,0.,12.0
1979-07-17 15:17:29.490 ,0,0,0.,12.0,0.,12.0,0.,12.0,0.,12.0
1979-07-17 15:17:41.490 ,7,0,0.,12.0,0.,12.0,0.,12.0,0.,12.0
1979-07-17 15:17:53.490 ,7,0,0.,12.0,0.,12.0,0.,12.0,0.,12.0
1979-07-17 15:18:05.490 ,7,0,0.,12.0,0.,12.0,0.,12.0,0.,12.0
1979-07-17 15:18:17.490 ,7,0,0.,12.0,0.,12.0,0.,12.0,0.,12.0
1979-07-17 15:18:29.490 ,7,0,0.,12.0,0.,12.0,0.,12.0,0.,12.0
1979-07-17 15:18:41.490 ,7,0,0.,12.0,0.,12.0,0.,12.0,0.,12.0
1979-07-17 15:18:53.490 ,7,0,0.,12.0,0.,12.0,0.,12.0,0.,12.0
1979-07-17 15:19:05.490 ,7,0,0.,12.0,0.,12.0,0.,12.0,0.,12.0
1979-07-17 15:19:17.490 ,6,0,0.,12.0,0.,12.0,0.,12.0,0.,12.0
1979-07-17 15:19:29.490 ,6,0,0.,12.0,0.,12.0,0.,12.0,0.,12.0
1979-07-17 15:19:41.490 ,6,0,0.,12.0,0.,12.0,0.,12.0,0.,12.0
1979-07-17 15:19:53.490 ,6,0,0.,12.0,0.,12.0,0.,12.0,0.,12.0
1979-07-17 15:20:05.490 ,5,0,0.,12.0,0.,12.0,0.,12.0,0.,12.0
1979-07-17 15:20:17.490 ,5,0,0.,12.0,0.,12.0,0.,12.0,0.,12.0
1979-07-17 15:20:29.490 ,5,0,0.,12.0,0.,12.0,0.,12.0,0.,12.0
1979-07-17 15:20:41.490 ,5,0,0.,12.0,0.,12.0,0.,12.0,0.,12.0
1979-07-17 15:20:53.490 ,4,0,0.,12.0,0.,12.0,0.,12.0,0.,12.0
1979-07-17 15:21:05.490 ,4,0,0.,12.0,0.,12.0,0.,12.0,0.,12.0
1979-07-17 15:21:17.490 ,4,0,0.,12.0,0.,12.0,0.,12.0,0.,12.0
1979-07-17 15:21:29.490 ,4,0,0.,12.0,0.,12.0,0.,12.0,0.,12.0
1979-07-17 15:21:41.490 ,3,0,0.,12.0,0.,12.0,0.,12.0,0.,12.0
1979-07-17 15:21:53.490 ,3,0,0.,12.0,0.,12.0,0.,12.0,0.,12.0
1979-07-17 15:22:05.490 ,3,0,0.,12.0,0.,12.0,0.,12.0,0.,12.0
1979-07-17 15:22:17.490 ,3,0,0.,12.0,0.,12.0,0.,12.0,0.,12.0
1979-07-17 15:22:29.490 ,2,0,0.,12.0,0.,12.0,0.,12.0,0.,12.0
1979-07-17 15:22:41.490 ,2,0,0.,12.0,0.,12.0,0.,12.0,0.,12.0
1979-07-17 15:22:53.490 ,2,0,0.,12.0,0.,12.0,0.,12.0,0.,12.0
1979-07-17 15:23:05.490 ,2,0,0.,12.0,0.,12.0,0.,12.0,0.,12.0
1979-07-17 15:23:17.490 ,1,0,0.,12.0,0.,12.0,0.,12.0,0.,12.0
1979-07-17 15:23:29.490 ,1,0,0.,12.0,0.,12.0,0.,12.0,0.,12.0
1979-07-17 15:23:41.490 ,1,0,0.,12.0,0.,12.0,0.,12.0,0.,12.0
1979-07-17 15:23:53.490 ,1,0,0.,12.0,0.,12.0,0.,12.0,0.,12.0
1979-07-17 15:24:05.490 ,0,0,0.,12.0,0.,12.0,0.,12.0,0.,12.0
1979-07-17 15:24:17.490 ,0,0,0.,12.0,0.,12.0,0.,12.0,0.,12.0
1979-07-17 15:24:29.490 ,0,0,0.,12.0,0.,12.0,0.,12.0,0.,12.0
1979-07-17 15:24:41.490 ,0,0,0.,12.0,0.,12.0,0.,12.0,0.,12.0
1979-07-17 15:24:53.490 ,0,0,0.,12.0,0.,12.0,0.,12.0,0.,12.0
1979-07-17 15:25:05.490 ,0,0,0.,12.0,0.,12.0,0.,12.0,0.,12.0
1979-07-17 15:25:17.490 ,0,0,0.,12.0,0.,12.0,0.,12.0,0.,12.0
1979-07-17 15:25:29.490 ,0,0,0.,12.0,0.,12.0,0.,12.0,0.,12.0
1979-07-17 15:25:41.490 ,1,0,0.,12.0,0.,12.0,0.,12.0,0.,12.0
1979-07-17 15:25:53.490 ,1,0,0.,12.0,0.,12.0,0.,12.0,0.,12.0
1979-07-17 15:26:05.490 ,1,0,0.,12.0,0.,12.0,0.,12.0,0.,12.0
1979-07-17 15:26:17.490 ,1,0,0.,12.0,0.,12.0,0.,12.0,0.,12.0
1979-07-17 15:26:29.490 ,2,0,0.,12.0,0.,12.0,0.,12.0,0.,12.0
1979-07-17 15:26:41.490 ,2,0,0.,12.0,0.,12.0,0.,12.0,0.,12.0
1979-07-17 15:26:53.490 ,2,0,0.,12.0,0.,12.0,0.,12.0,0.,12.0
1979-07-17 15:27:05.490 ,2,0,0.,12.0,0.,12.0,0.,12.0,0.,12.0
1979-07-17 15:27:17.490 ,3,0,0.,12.0,0.,12.0,0.,12.0,0.,12.0
1979-07-17 15:27:29.490 ,3,0,0.,12.0,0.,12.0,0.,12.0,0.,12.0
1979-07-17 15:27:41.490 ,3,0,0.,12.0,0.,12.0,0.,12.0,0.,12.0
1979-07-17 15:27:53.490 ,3,0,0.,12.0,0.,12.0,0.,12.0,0.,12.0
1979-07-17 15:28:05.490 ,4,0,0.,12.0,0.,12.0,0.,12.0,0.,12.0
1979-07-17 15:28:17.490 ,4,0,0.,12.0,0.,12.0,0.,12.0,0.,12.0
1979-07-17 15:28:29.490 ,4,0,0.,12.0,0.,12.0,0.,12.0,0.,12.0
1979-07-17 15:28:41.490 ,4,0,0.,12.0,0.,12.0,0.,12.0,0.,12.0
1979-07-17 15:28:53.490 ,5,0,0.,12.0,0.,12.0,0.,12.0,0.,12.0
1979-07-17 15:29:05.490 ,5,0,0.,12.0,0.,12.0,0.,12.0,0.,12.0
1979-07-17 15:29:17.490 ,5,0,0.,12.0,0.,12.0,0.,12.0,0.,12.0
1979-07-17 15:29:29.490 ,5,0,0.,12.0,0.,12.0,0.,12.0,0.,12.0
1979-07-17 15:29:41.490 ,6,0,0.,12.0,0.,12.0,0.,12.0,0.,12.0
1979-07-17 15:29:53.490 ,6,0,0.,12.0,0.,12.0,0.,12.0,0.,12.0
1979-07-17 15:30:05.490 ,6,0,0.,12.0,0.,12.0,0.,12.0,0.,12.0
1979-07-17 15:30:17.490 ,6,0,0.,12.0,0.,12.0,0.,12.0,0.,12.0
1979-07-17 15:30:29.490 ,7,0,0.,12.0,0.,12.0,0.,12.0,0.,12.0
1979-07-17 15:30:41.490 ,7,0,0.,12.0,0.,12.0,0.,12.0,0.,12.0
1979-07-17 15:30:53.490 ,7,0,0.,12.0,0.,12.0,0.,12.0,0.,12.0
1979-07-17 15:31:05.490 ,7,0,0.,12.0,0.,12.0,0.,12.0,0.,12.0
1979-07-17 15:31:17.490 ,3,1,0.,12.0,0.,12.0,0.,12.0,0.,12.0
1979-07-17 15:31:29.490 ,3,1,0.,12.0,0.,12.0,0.,12.0,0.,12.0
1979-07-17 15:31:41.490 ,0,1,0.,12.0,0.,12.0,0.,12.0,0.,12.0
1979-07-17 15:31:53.490 ,0,1,0.,12.0,0.,12.0,0.,12.0,0.,12.0
1979-07-17 15:32:05.490 ,4,1,0.,12.0,0.,12.0,0.,12.0,0.,12.0
1979-07-17 15:32:17.490 ,4,1,0.,12.0,0.,12.0,0.,12.0,0.,12.0
1979-07-17 15:32:29.490 ,7,1,0.,12.0,0.,12.0,0.,12.0,0.,12.0
1979-07-17 15:32:41.490 ,7,1,0.,12.0,0.,12.0,0.,12.0,0.,12.0
1979-07-17 15:32:53.490 ,3,1,0.,12.0,0.,12.0,0.,12.0,0.,12.0
1979-07-17 15:33:05.490 ,3,1,0.,12.0,0.,12.0,0.,12.0,0.,12.0
1979-07-17 15:33:17.490 ,0,1,0.,12.0,0.,12.0,0.,12.0,0.,12.0
1979-07-17 15:33:29.490 ,0,1,0.,12.0,0.,12.0,0.,12.0,0.,12.0
1979-07-17 15:33:41.490 ,4,1,0.,12.0,0.,12.0,0.,12.0,0.,12.0
1979-07-17 15:33:53.490 ,4,1,0.,12.0,0.,12.0,0.,12.0,0.,12.0
1979-07-17 15:34:05.490 ,7,1,0.,12.0,0.,12.0,0.,12.0,0.,12.0
1979-07-17 15:34:17.490 ,7,1,0.,12.0,0.,12.0,0.,12.0,0.,12.0
1979-07-17 15:34:29.490 ,3,1,0.,12.0,0.,12.0,0.,12.0,0.,12.0
1979-07-17 15:34:41.490 ,3,1,0.,12.0,0.,12.0,0.,12.0,0.,12.0
1979-07-17 15:34:53.490 ,0,1,0.,12.0,0.,12.0,0.,12.0,0.,12.0
1979-07-17 15:35:05.490 ,0,1,0.,12.0,0.,12.0,0.,12.0,0.,12.0
1979-07-17 15:35:17.490 ,4,1,0.,12.0,0.,12.0,0.,12.0,0.,12.0
1979-07-17 15:35:29.490 ,4,1,0.,12.0,0.,12.0,0.,12.0,0.,12.0
1979-07-17 15:35:41.490 ,7,1,0.,12.0,0.,12.0,0.,12.0,0.,12.0
1979-07-17 15:35:53.490 ,7,1,0.,12.0,0.,12.0,0.,12.0,0.,12.0
1979-07-17 15:36:05.490 ,3,1,0.,12.0,0.,12.0,0.,12.0,0.,12.0
1979-07-17 15:36:17.490 ,3,1,0.,12.0,0.,12.0,0.,12.0,0.,12.0
1979-07-17 15:36:29.490 ,0,1,0.,12.0,0.,12.0,0.,12.0,0.,12.0
1979-07-17 15:36:41.490 ,0,1,0.,12.0,0.,12.0,0.,12.0,0.,12.0
1979-07-17 15:36:53.490 ,4,1,0.,12.0,0.,12.0,0.,12.0,0.,12.0
1979-07-17 15:37:05.490 ,4,1,0.,12.0,0.,12.0,0.,12.0,0.,12.0
1979-07-17 15:37:17.490 ,7,1,0.,12.0,0.,12.0,0.,12.0,0.,12.0
1979-07-17 15:37:29.490 ,7,1,0.,12.0,0.,12.0,0.,12.0,0.,12.0
1979-07-17 15:37:41.490 ,3,1,0.,12.0,0.,12.0,0.,12.0,0.,12.0
1979-07-17 15:37:53.490 ,3,1,0.,12.0,0.,12.0,0.,12.0,0.,12.0
1979-07-17 15:38:05.490 ,0,1,0.,12.0,0.,12.0,0.,12.0,0.,12.0
1979-07-17 15:38:17.490 ,0,1,0.,12.0,0.,12.0,0.,12.0,0.,12.0
1979-07-17 15:38:29.490 ,4,1,0.,12.0,0.,12.0,0.,12.0,0.,12.0
1979-07-17 15:38:41.490 ,4,1,0.,12.0,0.,12.0,0.,12.0,0.,12.0
1979-07-17 15:38:53.490 ,7,1,0.,12.0,0.,12.0,0.,12.0,0.,12.0
1979-07-17 15:39:05.490 ,7,1,0.,12.0,0.,12.0,0.,12.0,0.,12.0
1979-07-17 15:39:17.490 ,3,1,0.,12.0,0.,12.0,0.,12.0,0.,12.0
1979-07-17 15:39:29.490 ,3,1,0.,12.0,0.,12.0,0.,12.0,0.,12.0
1979-07-17 15:39:41.490 ,0,1,0.,12.0,0.,12.0,0.,12.0,0.,12.0
1979-07-17 15:39:53.490 ,0,1,0.,12.0,0.,12.0,0.,12.0,0.,12.0
1979-07-17 15:40:05.490 ,4,1,0.,12.0,0.,12.0,0.,12.0,0.,12.0
1979-07-17 15:40:17.490 ,4,1,0.,12.0,0.,12.0,0.,12.0,0.,12.0
1979-07-17 15:40:29.490 ,7,1,0.,12.0,0.,12.0,0.,12.0,0.,12.0
1979-07-17 15:40:41.490 ,7,1,0.,12.0,0.,12.0,0.,12.0,0.,12.0
1979-07-17 15:40:53.490 ,3,1,0.,12.0,0.,12.0,0.,12.0,0.,12.0
1979-07-17 15:41:05.490 ,3,1,0.,12.0,0.,12.0,0.,12.0,0.,12.0
1979-07-17 15:41:17.490 ,0,1,0.,12.0,0.,12.0,0.,12.0,0.,12.0
1979-07-17 15:41:29.490 ,0,1,1.,12.0,0.,12.0,0.,12.0,0.,12.0
1979-07-17 15:41:41.490 ,0,0,0.,12.0,0.,12.0,0.,12.0,0.,12.0
1979-07-17 15:41:53.490 ,0,0,0.,12.0,0.,12.0,0.,12.0,0.,12.0
1979-07-17 15:42:05.490 ,0,0,0.,12.0,0.,12.0,0.,12.0,0.,12.0
1979-07-17 15:42:17.490 ,0,0,0.,12.0,0.,12.0,0.,12.0,0.,12.0
1979-07-17 15:42:29.490 ,5,0,0.,12.0,0.,12.0,0.,12.0,0.,12.0
1979-07-17 15:42:41.490 ,5,0,0.,12.0,0.,12.0,0.,12.0,0.,12.0
1979-07-17 15:42:53.490 ,5,0,0.,12.0,0.,12.0,0.,12.0,0.,12.0
1979-07-17 15:43:05.490 ,5,0,0.,12.0,0.,12.0,0.,12.0,0.,12.0
1979-07-17 15:43:17.490 ,4,0,0.,12.0,0.,12.0,0.,12.0,0.,12.0
1979-07-17 15:43:29.490 ,4,0,1.,12.0,0.,12.0,0.,12.0,0.,12.0
1979-07-17 15:43:41.490 ,4,0,0.,12.0,0.,12.0,0.,12.0,0.,12.0
1979-07-17 15:43:53.490 ,4,0,0.,12.0,0.,12.0,0.,12.0,0.,12.0
1979-07-17 15:44:05.490 ,3,0,0.,12.0,0.,12.0,0.,12.0,0.,12.0
1979-07-17 15:44:17.490 ,3,0,0.,12.0,0.,12.0,0.,12.0,0.,12.0
1979-07-17 15:44:29.490 ,3,0,0.,12.0,0.,12.0,0.,12.0,0.,12.0
1979-07-17 15:44:41.490 ,3,0,0.,12.0,0.,12.0,0.,12.0,0.,12.0
1979-07-17 15:44:53.490 ,2,0,0.,12.0,0.,12.0,0.,12.0,0.,12.0
1979-07-17 15:45:05.490 ,2,0,0.,12.0,0.,12.0,0.,12.0,0.,12.0
1979-07-17 15:45:17.490 ,2,0,0.,12.0,0.,12.0,0.,12.0,0.,12.0
1979-07-17 15:45:29.490 ,2,0,0.,12.0,0.,12.0,0.,12.0,0.,12.0
1979-07-17 15:45:41.490 ,1,0,0.,12.0,0.,12.0,0.,12.0,0.,12.0
1979-07-17 15:45:53.490 ,1,0,0.,12.0,0.,12.0,0.,12.0,0.,12.0
1979-07-17 15:46:05.490 ,1,0,0.,12.0,0.,12.0,0.,12.0,0.,12.0
1979-07-17 15:46:17.490 ,1,0,0.,12.0,0.,12.0,0.,12.0,0.,12.0
1979-07-17 15:46:29.490 ,0,0,1.,12.0,0.,12.0,0.,12.0,0.,12.0
1979-07-17 15:46:41.490 ,0,0,0.,12.0,0.,12.0,0.,12.0,0.,12.0
1979-07-17 15:46:53.490 ,0,0,0.,12.0,0.,12.0,0.,12.0,0.,12.0
1979-07-17 15:47:05.490 ,0,0,0.,12.0,0.,12.0,0.,12.0,0.,12.0
1979-07-17 15:47:17.490 ,0,0,0.,12.0,0.,12.0,0.,12.0,0.,12.0
1979-07-17 15:47:29.490 ,0,0,0.,12.0,0.,12.0,0.,12.0,0.,12.0
1979-07-17 15:47:41.490 ,0,0,0.,12.0,0.,12.0,0.,12.0,0.,12.0
1979-07-17 15:47:53.490 ,0,0,0.,12.0,0.,12.0,0.,12.0,0.,12.0
1979-07-17 15:48:05.490 ,1,0,0.,12.0,0.,12.0,0.,12.0,0.,12.0
1979-07-17 15:48:17.490 ,1,0,0.,12.0,0.,12.0,0.,12.0,0.,12.0
1979-07-17 15:48:29.490 ,1,0,0.,12.0,0.,12.0,0.,12.0,0.,12.0
1979-07-17 15:48:41.490 ,1,0,0.,12.0,0.,12.0,0.,12.0,0.,12.0
1979-07-17 15:48:53.490 ,2,0,0.,12.0,0.,12.0,0.,12.0,0.,12.0
1979-07-17 15:49:05.490 ,2,0,0.,12.0,0.,12.0,0.,12.0,0.,12.0
1979-07-17 15:49:17.490 ,2,0,0.,12.0,0.,12.0,0.,12.0,0.,12.0
1979-07-17 15:49:29.490 ,2,0,0.,12.0,0.,12.0,0.,12.0,0.,12.0
1979-07-17 15:49:41.490 ,3,0,0.,12.0,0.,12.0,0.,12.0,0.,12.0
1979-07-17 15:49:53.490 ,3,0,0.,12.0,0.,12.0,0.,12.0,0.,12.0
1979-07-17 15:50:05.490 ,3,0,0.,12.0,0.,12.0,0.,12.0,0.,12.0
1979-07-17 15:50:17.490 ,3,0,0.,12.0,0.,12.0,0.,12.0,0.,12.0
1979-07-17 15:50:29.490 ,4,0,0.,12.0,0.,12.0,0.,12.0,0.,12.0
1979-07-17 15:50:41.490 ,4,0,0.,12.0,0.,12.0,0.,12.0,0.,12.0
1979-07-17 15:50:53.490 ,4,0,1.,12.0,0.,12.0,0.,12.0,0.,12.0
1979-07-17 15:51:05.490 ,4,0,0.,12.0,0.,12.0,0.,12.0,0.,12.0
1979-07-17 15:51:17.490 ,5,0,0.,12.0,0.,12.0,0.,12.0,0.,12.0
1979-07-17 15:51:29.490 ,5,0,0.,12.0,0.,12.0,0.,12.0,0.,12.0
1979-07-17 15:51:41.490 ,5,0,0.,12.0,0.,12.0,0.,12.0,0.,12.0
1979-07-17 15:51:53.490 ,5,0,0.,12.0,0.,12.0,0.,12.0,0.,12.0
1979-07-17 15:52:05.490 ,6,0,0.,12.0,0.,12.0,0.,12.0,0.,12.0
1979-07-17 15:52:17.490 ,6,0,0.,12.0,0.,12.0,0.,12.0,0.,12.0
1979-07-17 15:52:29.490 ,6,0,0.,12.0,0.,12.0,0.,12.0,0.,12.0
1979-07-17 15:52:41.490 ,6,0,0.,12.0,0.,12.0,0.,12.0,0.,12.0
1979-07-17 15:52:53.490 ,7,0,0.,12.0,0.,12.0,0.,12.0,0.,12.0
1979-07-17 15:53:05.490 ,7,0,0.,12.0,0.,12.0,0.,12.0,0.,12.0
1979-07-17 15:53:17.490 ,7,0,0.,12.0,0.,12.0,0.,12.0,0.,12.0
1979-07-17 15:53:29.490 ,7,0,0.,12.0,0.,12.0,0.,12.0,0.,12.0
1979-07-17 15:53:41.490 ,7,0,0.,12.0,0.,12.0,0.,12.0,0.,12.0
1979-07-17 15:53:53.490 ,7,0,0.,12.0,0.,12.0,0.,12.0,0.,12.0
1979-07-17 15:54:05.490 ,7,0,0.,12.0,0.,12.0,0.,12.0,0.,12.0
1979-07-17 15:54:17.490 ,7,0,0.,12.0,0.,12.0,0.,12.0,0.,12.0
1979-07-17 15:54:29.490 ,6,0,0.,12.0,0.,12.0,0.,12.0,0.,12.0
1979-07-17 15:54:41.490 ,6,0,0.,12.0,0.,12.0,0.,12.0,0.,12.0
1979-07-17 15:54:53.490 ,6,0,0.,12.0,0.,12.0,0.,12.0,0.,12.0
1979-07-17 15:55:05.490 ,6,0,0.,12.0,0.,12.0,0.,12.0,0.,12.0
1979-07-17 15:55:17.490 ,5,0,0.,12.0,0.,12.0,0.,12.0,0.,12.0
1979-07-17 15:55:29.490 ,5,0,0.,12.0,0.,12.0,0.,12.0,0.,12.0
1979-07-17 15:55:41.490 ,5,0,0.,12.0,0.,12.0,0.,12.0,0.,12.0
1979-07-17 15:55:53.490 ,5,0,0.,12.0,0.,12.0,0.,12.0,0.,12.0
1979-07-17 15:56:05.490 ,4,0,0.,12.0,0.,12.0,0.,12.0,0.,12.0
1979-07-17 15:56:17.490 ,4,0,0.,12.0,0.,12.0,0.,12.0,0.,12.0
1979-07-17 15:56:29.490 ,4,0,0.,12.0,0.,12.0,0.,12.0,0.,12.0
1979-07-17 15:56:41.490 ,4,0,0.,12.0,0.,12.0,0.,12.0,0.,12.0
1979-07-17 15:56:53.490 ,3,0,0.,12.0,0.,12.0,0.,12.0,0.,12.0
1979-07-17 15:57:05.490 ,3,0,0.,12.0,0.,12.0,0.,12.0,0.,12.0
1979-07-17 15:57:17.490 ,3,0,0.,12.0,0.,12.0,0.,12.0,0.,12.0
1979-07-17 15:57:29.490 ,3,0,0.,12.0,0.,12.0,0.,12.0,0.,12.0
1979-07-17 15:57:41.490 ,2,0,0.,12.0,0.,12.0,0.,12.0,0.,12.0
1979-07-17 15:57:53.490 ,2,0,0.,12.0,0.,12.0,0.,12.0,0.,12.0
1979-07-17 15:58:05.490 ,2,0,0.,12.0,0.,12.0,0.,12.0,0.,12.0
1979-07-17 15:58:17.490 ,2,0,0.,12.0,0.,12.0,0.,12.0,0.,12.0
1979-07-17 15:58:29.490 ,1,0,0.,12.0,0.,12.0,0.,12.0,0.,12.0
1979-07-17 15:58:41.490 ,1,0,0.,12.0,0.,12.0,0.,12.0,0.,12.0
1979-07-17 15:58:53.490 ,1,0,0.,12.0,0.,12.0,0.,12.0,0.,12.0
1979-07-17 15:59:05.490 ,1,0,0.,12.0,0.,12.0,0.,12.0,0.,12.0
1979-07-17 15:59:17.490 ,0,0,0.,12.0,0.,12.0,0.,12.0,0.,12.0
1979-07-17 15:59:29.490 ,0,0,0.,12.0,0.,12.0,0.,12.0,0.,12.0
1979-07-17 15:59:41.490 ,0,0,0.,12.0,0.,12.0,0.,12.0,0.,12.0
1979-07-17 15:59:53.490 ,0,0,0.,12.0,0.,12.0,0.,12.0,0.,12.0
1979-07-17 16:00:05.490 ,0,0,0.,12.0,0.,12.0,0.,12.0,0.,12.0
1979-07-17 16:00:17.490 ,0,0,0.,12.0,0.,12.0,0.,12.0,0.,12.0
1979-07-17 16:00:29.490 ,0,0,0.,12.0,0.,12.0,0.,12.0,0.,12.0
1979-07-17 16:00:41.490 ,0,0,0.,12.0,0.,12.0,0.,12.0,0.,12.0
1979-07-17 16:00:53.490 ,1,0,0.,12.0,0.,12.0,0.,12.0,0.,12.0
1979-07-17 16:01:05.490 ,1,0,0.,12.0,0.,12.0,0.,12.0,0.,12.0
1979-07-17 16:01:17.490 ,1,0,,0,,0,,0,,0
1979-07-17 16:01:29.490 ,1,0,1.,12.0,0.,12.0,0.,12.0,0.,12.0
1979-07-17 16:01:41.490 ,2,0,0.,12.0,0.,12.0,0.,12.0,0.,12.0
1979-07-17 16:01:53.490 ,2,0,0.,12.0,0.,12.0,0.,12.0,0.,12.0
1979-07-17 16:02:05.490 ,2,0,0.,12.0,0.,12.0,0.,12.0,0.,12.0
1979-07-17 16:02:17.490 ,2,0,0.,12.0,0.,12.0,0.,12.0,0.,12.0
1979-07-17 16:02:29.490 ,3,0,0.,12.0,0.,12.0,0.,12.0,0.,12.0
1979-07-17 16:02:41.490 ,3,0,0.,12.0,0.,12.0,0.,12.0,0.,12.0
1979-07-17 16:02:53.490 ,3,0,0.,12.0,0.,12.0,0.,12.0,0.,12.0
1979-07-17 16:03:05.490 ,3,0,0.,12.0,0.,12.0,0.,12.0,0.,12.0
1979-07-17 16:03:17.480 ,4,0,0.,12.0,0.,12.0,0.,12.0,0.,12.0
1979-07-17 16:03:29.480 ,4,0,0.,12.0,0.,12.0,0.,12.0,0.,12.0
1979-07-17 16:03:41.480 ,4,0,0.,12.0,0.,12.0,0.,12.0,0.,12.0
1979-07-17 16:03:53.480 ,4,0,0.,12.0,0.,12.0,0.,12.0,0.,12.0
1979-07-17 16:04:05.480 ,5,0,0.,12.0,0.,12.0,0.,12.0,0.,12.0
1979-07-17 16:04:17.480 ,5,0,0.,12.0,0.,12.0,0.,12.0,0.,12.0
1979-07-17 16:04:29.480 ,5,0,0.,12.0,0.,12.0,0.,12.0,0.,12.0
1979-07-17 16:04:41.480 ,5,0,0.,12.0,0.,12.0,0.,12.0,0.,12.0
1979-07-17 16:04:53.480 ,6,0,0.,12.0,0.,12.0,0.,12.0,0.,12.0
1979-07-17 16:05:05.480 ,6,0,0.,12.0,0.,12.0,0.,12.0,0.,12.0
1979-07-17 16:05:17.480 ,6,0,0.,12.0,0.,12.0,0.,12.0,0.,12.0
1979-07-17 16:05:29.480 ,6,0,0.,12.0,0.,12.0,0.,12.0,0.,12.0
1979-07-17 16:05:41.480 ,7,0,0.,12.0,0.,12.0,0.,12.0,0.,12.0
1979-07-17 16:05:53.480 ,7,0,0.,12.0,0.,12.0,0.,12.0,0.,12.0
1979-07-17 16:06:05.480 ,7,0,0.,12.0,0.,12.0,0.,12.0,0.,12.0
1979-07-17 16:06:17.480 ,7,0,0.,12.0,0.,12.0,0.,12.0,0.,12.0
1979-07-17 16:06:29.480 ,7,0,0.,12.0,0.,12.0,0.,12.0,0.,12.0
1979-07-17 16:06:41.480 ,7,0,0.,12.0,0.,12.0,0.,12.0,0.,12.0
1979-07-17 16:06:53.480 ,7,0,0.,12.0,0.,12.0,0.,12.0,0.,12.0
1979-07-17 16:07:05.480 ,7,0,0.,12.0,0.,12.0,0.,12.0,0.,12.0
1979-07-17 16:07:17.480 ,6,0,0.,12.0,0.,12.0,0.,12.0,0.,12.0
1979-07-17 16:07:29.480 ,6,0,0.,12.0,0.,12.0,0.,12.0,0.,12.0
1979-07-17 16:07:41.480 ,6,0,0.,12.0,0.,12.0,0.,12.0,0.,12.0
1979-07-17 16:07:53.480 ,6,0,0.,12.0,0.,12.0,0.,12.0,0.,12.0
1979-07-17 16:08:05.480 ,5,0,0.,12.0,0.,12.0,0.,12.0,0.,12.0
1979-07-17 16:08:17.480 ,5,0,0.,12.0,0.,12.0,0.,12.0,0.,12.0
1979-07-17 16:08:29.480 ,5,0,0.,12.0,0.,12.0,0.,12.0,0.,12.0
1979-07-17 16:08:41.480 ,5,0,1.,12.0,0.,12.0,0.,12.0,0.,12.0
1979-07-17 16:08:53.480 ,4,0,0.,12.0,0.,12.0,0.,12.0,0.,12.0
1979-07-17 16:09:05.480 ,4,0,0.,12.0,0.,12.0,0.,12.0,0.,12.0
1979-07-17 16:09:17.480 ,4,0,0.,12.0,0.,12.0,0.,12.0,0.,12.0
1979-07-17 16:09:29.480 ,4,0,0.,12.0,0.,12.0,0.,12.0,0.,12.0
1979-07-17 16:09:41.480 ,3,0,0.,12.0,0.,12.0,0.,12.0,0.,12.0
1979-07-17 16:09:53.480 ,3,0,0.,12.0,0.,12.0,0.,12.0,0.,12.0
1979-07-17 16:10:05.480 ,3,0,0.,12.0,0.,12.0,0.,12.0,0.,12.0
1979-07-17 16:10:17.480 ,3,0,0.,12.0,0.,12.0,0.,12.0,0.,12.0
1979-07-17 16:10:29.480 ,2,0,0.,12.0,0.,12.0,0.,12.0,0.,12.0
1979-07-17 16:10:41.480 ,2,0,0.,12.0,0.,12.0,0.,12.0,0.,12.0
1979-07-17 16:10:53.480 ,2,0,0.,12.0,0.,12.0,0.,12.0,0.,12.0
1979-07-17 16:11:05.480 ,2,0,0.,12.0,0.,12.0,0.,12.0,0.,12.0
1979-07-17 16:11:17.480 ,1,0,0.,12.0,0.,12.0,0.,12.0,0.,12.0
1979-07-17 16:11:29.480 ,1,0,0.,12.0,0.,12.0,0.,12.0,0.,12.0
1979-07-17 16:11:41.480 ,1,0,0.,12.0,0.,12.0,0.,12.0,0.,12.0
1979-07-17 16:11:53.480 ,1,0,0.,12.0,0.,12.0,0.,12.0,0.,12.0
1979-07-17 16:12:05.480 ,0,0,0.,12.0,0.,12.0,0.,12.0,0.,12.0
1979-07-17 16:12:17.480 ,0,0,0.,12.0,0.,12.0,0.,12.0,0.,12.0
1979-07-17 16:12:29.480 ,0,0,0.,12.0,0.,12.0,0.,12.0,0.,12.0
1979-07-17 16:12:41.480 ,0,0,1.,12.0,0.,12.0,0.,12.0,0.,12.0
1979-07-17 16:12:53.480 ,0,0,0.,12.0,0.,12.0,0.,12.0,0.,12.0
1979-07-17 16:13:05.480 ,0,0,0.,12.0,0.,12.0,0.,12.0,0.,12.0
1979-07-17 16:13:17.480 ,0,0,0.,12.0,0.,12.0,0.,12.0,0.,12.0
1979-07-17 16:13:29.480 ,0,0,0.,12.0,0.,12.0,0.,12.0,0.,12.0
1979-07-17 16:13:41.480 ,1,0,0.,12.0,0.,12.0,0.,12.0,0.,12.0
1979-07-17 16:13:53.480 ,1,0,0.,12.0,0.,12.0,0.,12.0,0.,12.0
1979-07-17 16:14:05.480 ,1,0,0.,12.0,0.,12.0,0.,12.0,0.,12.0
1979-07-17 16:14:17.480 ,1,0,0.,12.0,0.,12.0,0.,12.0,0.,12.0
1979-07-17 16:14:29.480 ,2,0,0.,12.0,0.,12.0,0.,12.0,0.,12.0
1979-07-17 16:14:41.480 ,2,0,0.,12.0,0.,12.0,0.,12.0,0.,12.0
1979-07-17 16:14:53.480 ,2,0,0.,12.0,0.,12.0,0.,12.0,0.,12.0
1979-07-17 16:15:05.480 ,2,0,0.,12.0,0.,12.0,0.,12.0,0.,12.0
1979-07-17 16:15:17.480 ,3,0,0.,12.0,0.,12.0,0.,12.0,0.,12.0
1979-07-17 16:15:29.480 ,3,0,0.,12.0,0.,12.0,0.,12.0,0.,12.0
1979-07-17 16:16:05.480 ,4,0,0.,12.0,0.,12.0,0.,12.0,0.,12.0
1979-07-17 16:16:17.480 ,4,0,0.,12.0,0.,12.0,0.,12.0,0.,12.0
1979-07-17 16:16:29.480 ,4,0,0.,12.0,0.,12.0,0.,12.0,0.,12.0
1979-07-17 16:16:41.480 ,4,0,0.,12.0,0.,12.0,0.,12.0,0.,12.0
1979-07-17 16:16:53.480 ,5,0,0.,12.0,0.,12.0,0.,12.0,0.,12.0
1979-07-17 16:17:05.480 ,5,0,0.,12.0,0.,12.0,0.,12.0,0.,12.0
1979-07-17 16:17:17.480 ,5,0,0.,12.0,0.,12.0,0.,12.0,0.,12.0
1979-07-17 16:17:29.480 ,5,0,0.,12.0,0.,12.0,0.,12.0,0.,12.0
1979-07-17 16:17:41.480 ,6,0,0.,12.0,0.,12.0,0.,12.0,0.,12.0
1979-07-17 16:17:53.480 ,6,0,1.,12.0,0.,12.0,0.,12.0,0.,12.0